This is the latest recevied weather packets stored in our database for station/object K0QJ. If no packets are shown the sender has not sent any weather packets the latest 10 day(s).
| Time | Temp. | Humidity | Pressure | Rain* | Wind** | Luminosity | Snow |
|---|---|---|---|---|---|---|---|
| 1777412119 | 13.89° C | 73% | 1012.7 hPa | 0 mm | - | 141 W/m² | - |
| 1777411815 | 13.89° C | 74% | 1012.7 hPa | 0 mm | - | 183 W/m² | - |
| 1777411514 | 13.89° C | 73% | 1012.7 hPa | 0 mm | - | 177 W/m² | - |
| 1777411209 | 13.89° C | 73% | 1012.5 hPa | 0 mm | - | 168 W/m² | - |
| 1777410903 | 14.44° C | 73% | 1012.4 hPa | 0 mm | - | 172 W/m² | - |
| 1777410596 | 13.89° C | 72% | 1012.5 hPa | 0 mm | - | 196 W/m² | - |
| 1777410290 | 13.89° C | 72% | 1012.7 hPa | 0 mm | - | 233 W/m² | - |
| 1777409986 | 14.44° C | 72% | 1012.7 hPa | 0 mm | - | 243 W/m² | - |
| 1777409680 | 14.44° C | 70% | 1012.8 hPa | 0 mm | - | 212 W/m² | - |
| 1777409377 | 14.44° C | 72% | 1012.7 hPa | 0 mm | - | 243 W/m² | - |
| 1777409072 | 14.44° C | 73% | 1013 hPa | 0 mm | - | 517 W/m² | - |
| 1777408769 | 13.89° C | 73% | 1013 hPa | 0 mm | - | 367 W/m² | - |
| 1777408460 | 13.89° C | 74% | 1013.2 hPa | 0 mm | - | 393 W/m² | - |
| 1777408155 | 13.33° C | 75% | 1013.6 hPa | 0 mm | - | 187 W/m² | - |
| 1777407850 | 13.33° C | 74% | 1013.7 hPa | 0 mm | - | 198 W/m² | - |
| 1777407547 | 13.89° C | 74% | 1013.7 hPa | 0 mm | - | 167 W/m² | - |
| 1777407241 | 13.33° C | 74% | 1014.2 hPa | 0 mm | - | 206 W/m² | - |
| 1777406936 | 12.78° C | 76% | 1014 hPa | 0 mm | - | 214 W/m² | - |
| 1777406636 | 12.78° C | 75% | 1014.3 hPa | 0 mm | - | 133 W/m² | - |
| 1777406332 | 13.33° C | 75% | 1014.4 hPa | 0 mm | - | 158 W/m² | - |
| 1777406032 | 13.33° C | 76% | 1013.8 hPa | 0 mm | - | 132 W/m² | - |
| 1777405729 | 12.78° C | 76% | 1013.6 hPa | 0 mm | - | 229 W/m² | - |
| 1777405425 | 13.33° C | 74% | 1013.4 hPa | 0 mm | - | 247 W/m² | - |
| 1777405122 | 12.78° C | 75% | 1013.6 hPa | 0 mm | - | 259 W/m² | - |
| 1777404821 | 13.33° C | 75% | 1013.9 hPa | 0 mm | - | 309 W/m² | - |
* Rain latest hour (hover to see other rain measurements)
** Current wind speed in m/s (hover to see current wind gust speed)